[ hide orbit diagram ]
For accurate long-term ephemerides, please instead use our Horizons system.This orbit viewer was implemented using two-body methods, and hence should not be used for determining accurate long-term trajectories (over several years or decades) or planetary encounter circumstances.
Orbital Elements at Epoch 2459200.5 (2020-Dec-17.0) TDB
Reference: JPL 35 (heliocentric ecliptic J2000)
Element | Value | Uncertainty (1-sigma) | Units |
e | .1701173653231995 | 2.7761e-08 | |
a | 2.270200437707945 | 6.1147e-09 | au |
q | 1.883999920489495 | 6.2991e-08 | au |
i | 5.49596863642279 | 3.1115e-06 | deg |
node | 127.2561053290938 | 3.5454e-05 | deg |
peri | 183.0727464820082 | 3.6847e-05 | deg |
M | 29.34749906684896 | 1.0531e-05 | deg |
tp | 2459098.649461812071 (2020-Sep-06.14946181) | 3.6491e-05 | TDB |
period | 1249.380523503372 3.42 | 5.0477e-06 1.382e-08 | d yr |
n | .2881427981529027 | 1.1641e-09 | deg/d |
Q | 2.656400954926395 | 7.1549e-09 | au |
|
| | Orbit Determination Parameters
Additional Information
|
[ show covariance matrix ]
Physical Parameter Table
Parameter |
Symbol |
Value |
Units |
Sigma |
Reference |
Notes |
absolute magnitude |
H |
13.40 |
|
n/a |
E2021B10 |
|
diameter |
diameter |
5.344 |
km |
0.040 |
urn:nasa:pds:neowise_diameters_albedos::2.0[mainbelt] (http://adsabs.harvard.edu/abs/2014ApJ...791..121M) |
|
rotation period |
rot_per |
9.385 |
h |
n/a |
LCDB (Rev. 2020-October); Warner et al., 2009 |
Result based on less than full coverage, so that the period may be wrong by 30 percent or so. Published Reference List: [Waszczak, A.; Chang, C.-K.; Ofeck, E.O.; Laher, F.; et al. (2015) Astron. J. 150, A75.] [Erasmus, N.; Navarro-Meza, S.; McNeill, A.; Trilling, D.E.; et al. (2020) Ap. J. Suppl. Ser. 247, A13.] |
geometric albedo |
albedo |
0.199 |
|
0.019 |
urn:nasa:pds:neowise_diameters_albedos::2.0[mainbelt] (http://adsabs.harvard.edu/abs/2014ApJ...791..121M) |
|
|
2682 Soromundi (1979 MF4) Discovered 1979-Jun-25 by Helin, E. F. and Bus, S. J. at Siding Spring |
Reference: DISCOVERY.DB | Last Updated: 2003-08-29 |
|
[ show close-approach data ]
|